• In United Kingdom
  • List of Countries
  • For 7 days
  • Water Temperature
  • Satellite Maps
  • Weather Map
  • Weather Widgets
  • user-avatar
    Login

    Hourly Weather Kalgoorlie

    Today, 18 February, Sunday

    Time Temperature Precipitation Wind Pressure Humidity
    00:00 +27°C° 0.3 mm 5 mps 723 mmHg 68%
    01:00 +27°C° 0.3 mm 5 mps 723 mmHg 71%
    02:00 +26°C° 0 mm 6 mps 723 mmHg 78%
    03:00 +26°C° 0.1 mm 6 mps 723 mmHg 77%
    04:00 +26°C° 0.1 mm 6 mps 723 mmHg 77%
    05:00 +26°C° 0.1 mm 6 mps 723 mmHg 76%
    06:00 +27°C° 0 mm 6 mps 723 mmHg 73%
    07:00 +27°C° 0 mm 7 mps 724 mmHg 69%
    08:00 +28°C° 0 mm 7 mps 724 mmHg 65%
    09:00 +29°C° 0 mm 7 mps 724 mmHg 59%
    10:00 +32°C° 0 mm 7 mps 724 mmHg 53%
    11:00 +33°C° 0 mm 6 mps 724 mmHg 47%
    12:00 +35°C° 0 mm 6 mps 723 mmHg 41%
    13:00 +36°C° 0 mm 6 mps 723 mmHg 36%
    14:00 +39°C° 0 mm 6 mps 723 mmHg 30%
    15:00 +38°C° 0 mm 6 mps 723 mmHg 32%
    16:00 +38°C° 0 mm 6 mps 723 mmHg 34%
    17:00 +36°C° 0 mm 6 mps 723 mmHg 35%
    18:00 +35°C° 0 mm 7 mps 723 mmHg 37%
    19:00 +34°C° 0 mm 8 mps 723 mmHg 40%
    20:00 +33°C° 0 mm 8 mps 723 mmHg 42%
    21:00 +32°C° 0 mm 8 mps 723 mmHg 45%
    22:00 +31°C° 0 mm 8 mps 724 mmHg 49%
    23:00 +29°C° 0 mm 8 mps 724 mmHg 52%

    Tomorrow, 19 February, Monday

    Time Temperature Precipitation Wind Pressure Humidity
    00:00 +29°C° 0 mm 7 mps 724 mmHg 55%
    01:00 +28°C° 0 mm 7 mps 724 mmHg 58%
    02:00 +28°C° 0 mm 6 mps 723 mmHg 61%
    03:00 +28°C° 0.1 mm 6 mps 723 mmHg 64%
    04:00 +27°C° 0.1 mm 6 mps 723 mmHg 67%
    05:00 +27°C° 0.1 mm 5 mps 723 mmHg 69%
    06:00 +27°C° 0.1 mm 6 mps 724 mmHg 69%
    07:00 +27°C° 0.1 mm 6 mps 724 mmHg 69%
    08:00 +27°C° 0.1 mm 7 mps 724 mmHg 69%
    09:00 +28°C° 0.3 mm 7 mps 724 mmHg 68%
    10:00 +28°C° 0.3 mm 7 mps 724 mmHg 67%
    11:00 +29°C° 0.3 mm 7 mps 724 mmHg 66%
    12:00 +29°C° 0.5 mm 7 mps 723 mmHg 64%
    13:00 +29°C° 0.5 mm 7 mps 723 mmHg 62%
    14:00 +30°C° 0.5 mm 7 mps 723 mmHg 60%
    15:00 +30°C° 0.6 mm 6 mps 723 mmHg 60%
    16:00 +30°C° 0.6 mm 5 mps 723 mmHg 61%
    17:00 +30°C° 0.6 mm 4 mps 723 mmHg 61%
    18:00 +29°C° 0.7 mm 4 mps 723 mmHg 63%
    19:00 +29°C° 0.7 mm 4 mps 723 mmHg 66%
    20:00 +28°C° 0.7 mm 4 mps 724 mmHg 69%
    21:00 +27°C° 1.5 mm 5 mps 724 mmHg 74%
    22:00 +26°C° 1.5 mm 6 mps 724 mmHg 79%
    23:00 +24°C° 1.5 mm 6 mps 724 mmHg 84%

    Day after tomorrow, 20 February, Tuesday

    Time Temperature Precipitation Wind Pressure Humidity
    00:00 +23°C° 0.9 mm 7 mps 724 mmHg 84%
    01:00 +23°C° 0.9 mm 8 mps 724 mmHg 84%
    02:00 +22°C° 0.9 mm 8 mps 724 mmHg 84%
    03:00 +22°C° 0.1 mm 8 mps 724 mmHg 84%
    04:00 +21°C° 0.1 mm 9 mps 724 mmHg 83%
    05:00 +21°C° 0.1 mm 9 mps 725 mmHg 83%
    06:00 +19°C° 0.1 mm 9 mps 725 mmHg 83%
    07:00 +19°C° 0.1 mm 9 mps 725 mmHg 83%
    08:00 +19°C° 0.1 mm 9 mps 726 mmHg 82%
    09:00 +19°C° 0.1 mm 9 mps 726 mmHg 81%
    10:00 +21°C° 0.1 mm 10 mps 726 mmHg 79%
    11:00 +21°C° 0.1 mm 10 mps 726 mmHg 77%
    12:00 +21°C° 0.1 mm 9 mps 725 mmHg 77%
    13:00 +21°C° 0.1 mm 9 mps 725 mmHg 77%
    14:00 +21°C° 0.1 mm 9 mps 725 mmHg 77%
    15:00 +22°C° 0 mm 9 mps 725 mmHg 76%
    16:00 +22°C° 0 mm 9 mps 725 mmHg 76%
    17:00 +22°C° 0 mm 9 mps 725 mmHg 75%
    18:00 +21°C° 0.1 mm 9 mps 725 mmHg 77%
    19:00 +21°C° 0.1 mm 9 mps 725 mmHg 78%
    20:00 +21°C° 0.1 mm 9 mps 725 mmHg 80%
    21:00 +19°C° 0.1 mm 9 mps 725 mmHg 81%
    22:00 +19°C° 0.1 mm 9 mps 725 mmHg 81%
    23:00 +19°C° 0.1 mm 9 mps 725 mmHg 82%

    21 February, Wednesday

    Time Temperature Precipitation Wind Pressure Humidity
    00:00 +19°C° 0.1 mm 9 mps 725 mmHg 82%
    01:00 +18°C° 0.1 mm 8 mps 724 mmHg 83%
    02:00 +18°C° 0.1 mm 8 mps 724 mmHg 83%
    03:00 +18°C° 0.1 mm 8 mps 724 mmHg 84%
    04:00 +18°C° 0.1 mm 8 mps 724 mmHg 84%
    05:00 +18°C° 0.1 mm 8 mps 724 mmHg 84%
    06:00 +18°C° 0 mm 8 mps 724 mmHg 84%
    07:00 +18°C° 0 mm 7 mps 724 mmHg 83%
    08:00 +20°C° 0 mm 7 mps 725 mmHg 83%
    09:00 +20°C° 0.1 mm 7 mps 725 mmHg 82%
    10:00 +21°C° 0.1 mm 7 mps 724 mmHg 81%
    11:00 +21°C° 0.1 mm 6 mps 724 mmHg 80%
    12:00 +22°C° 0.1 mm 6 mps 724 mmHg 79%
    13:00 +22°C° 0.1 mm 6 mps 724 mmHg 78%
    14:00 +22°C° 0.1 mm 6 mps 723 mmHg 77%
    15:00 +23°C° 0 mm 6 mps 723 mmHg 75%
    16:00 +24°C° 0 mm 6 mps 724 mmHg 73%
    17:00 +24°C° 0 mm 6 mps 724 mmHg 71%
    18:00 +25°C° 0 mm 5 mps 724 mmHg 74%
    19:00 +23°C° 0 mm 5 mps 725 mmHg 77%
    20:00 +22°C° 0 mm 4 mps 725 mmHg 80%
    21:00 +22°C° 0 mm 4 mps 725 mmHg 83%
    22:00 +22°C° 0 mm 3 mps 725 mmHg 85%
    23:00 +21°C° 0 mm 3 mps 725 mmHg 87%

    22 February, Thursday

    Time Temperature Precipitation Wind Pressure Humidity
    00:00 +21°C° 0 mm 3 mps 725 mmHg 88%
    01:00 +21°C° 0 mm 2 mps 725 mmHg 89%
    02:00 +21°C° 0 mm 2 mps 725 mmHg 90%
    03:00 +21°C° 0 mm 2 mps 725 mmHg 91%
    04:00 +21°C° 0 mm 2 mps 725 mmHg 91%
    05:00 +21°C° 0 mm 2 mps 725 mmHg 92%
    06:00 +21°C° 0 mm 2 mps 725 mmHg 87%
    07:00 +23°C° 0 mm 2 mps 726 mmHg 82%
    08:00 +24°C° 0 mm 2 mps 726 mmHg 77%
    09:00 +25°C° 0 mm 2 mps 726 mmHg 70%
    10:00 +27°C° 0 mm 2 mps 726 mmHg 64%
    11:00 +28°C° 0 mm 2 mps 726 mmHg 57%
    12:00 +29°C° 0 mm 2 mps 726 mmHg 53%
    13:00 +30°C° 0 mm 2 mps 725 mmHg 50%
    14:00 +31°C° 0 mm 1 mps 725 mmHg 46%
    15:00 +31°C° 0 mm 1 mps 725 mmHg 46%
    16:00 +31°C° 0 mm 1 mps 725 mmHg 45%
    17:00 +31°C° 0 mm 1 mps 725 mmHg 44%
    18:00 +31°C° 0 mm 1 mps 726 mmHg 44%
    19:00 +31°C° 0 mm 1 mps 726 mmHg 45%
    20:00 +31°C° 0 mm 2 mps 726 mmHg 45%
    21:00 +30°C° 0 mm 2 mps 727 mmHg 47%
    22:00 +30°C° 0 mm 3 mps 727 mmHg 48%
    23:00 +30°C° 0 mm 3 mps 727 mmHg 50%

    23 February, Friday

    Time Temperature Precipitation Wind Pressure Humidity
    00:00 +29°C° 0 mm 4 mps 726 mmHg 54%
    01:00 +28°C° 0 mm 4 mps 726 mmHg 58%
    02:00 +27°C° 0 mm 4 mps 726 mmHg 62%
    03:00 +27°C° 0 mm 4 mps 726 mmHg 64%
    04:00 +26°C° 0 mm 3 mps 726 mmHg 66%
    05:00 +26°C° 0 mm 3 mps 726 mmHg 68%
    06:00 +27°C° 0 mm 3 mps 727 mmHg 64%
    07:00 +28°C° 0 mm 4 mps 727 mmHg 60%
    08:00 +28°C° 0 mm 4 mps 728 mmHg 57%
    09:00 +30°C° 0 mm 4 mps 728 mmHg 51%
    10:00 +31°C° 0 mm 3 mps 728 mmHg 45%
    11:00 +34°C° 0 mm 3 mps 728 mmHg 39%
    12:00 +34°C° 0 mm 2 mps 727 mmHg 35%
    13:00 +35°C° 0 mm 2 mps 727 mmHg 32%
    14:00 +35°C° 0 mm 1 mps 726 mmHg 28%
    15:00 +35°C° 0 mm 1 mps 726 mmHg 28%
    16:00 +36°C° 0 mm 2 mps 726 mmHg 27%
    17:00 +36°C° 0 mm 2 mps 726 mmHg 26%
    18:00 +36°C° 0 mm 3 mps 727 mmHg 29%
    19:00 +35°C° 0 mm 3 mps 727 mmHg 31%
    20:00 +34°C° 0 mm 4 mps 727 mmHg 33%
    21:00 +33°C° 0 mm 5 mps 727 mmHg 38%
    22:00 +32°C° 0 mm 6 mps 727 mmHg 42%
    23:00 +30°C° 0 mm 7 mps 727 mmHg 47%
    Show more